IZ0QWM-13 Scandriglia IT current weather conditions

sailwx.info

Wind from 111

Air temperature 22.2° C
Dewpoint 20.5° C

Last reported at 2015-Aug-27 19:45 UTC.
Time now 2015-Aug-27 20:41 UTC

Location: N 42°10' E 012°47'.
View on Google Maps.

See reports from other nearby stations

  
Tides and Currents Weather Stations Pressure Air Temp Water Temp Dewpoint Dewpoint Depression Visibility Wind Speed Wind Dir Waves Ship Positions
date/time (UTC)wind fromknots sea level pressurealtimeterstation pressurevisibilityair tempwater tempwave heightnotes
2015-Aug-27 19:45 111 22.2
2015-Aug-27 19:35 111 22.2
2015-Aug-27 19:25 111 23.3
2015-Aug-27 19:15 111 23.3
2015-Aug-27 19:05 111 23.9
2015-Aug-27 18:55 111 24.4
2015-Aug-27 18:45 111 24.4
2015-Aug-27 18:35 111 24.4
2015-Aug-27 18:25 111 25.0
2015-Aug-27 18:15 111 25.0
2015-Aug-27 18:05 111 25.6
2015-Aug-27 17:55 111 26.1
2015-Aug-27 17:45 111 26.7
2015-Aug-27 17:35 111 26.7
2015-Aug-27 17:25 359 27.2
2015-Aug-27 17:15 359 27.8
2015-Aug-27 17:05 359 27.8
2015-Aug-27 16:55 359 28.3
2015-Aug-27 16:45 187 28.9
2015-Aug-27 16:35 359 28.3
2015-Aug-27 16:25 359 28.3
2015-Aug-27 16:15 359 28.3
2015-Aug-27 16:05 225 28.9
2015-Aug-27 15:55 359 28.9
2015-Aug-27 15:45 233 2 gusting 4 28.9
2015-Aug-27 15:35 224 28.9
2015-Aug-27 15:25 359 30.0
2015-Aug-27 15:15 359 30.0
2015-Aug-27 15:05 359 3 gusting 3 30.0
2015-Aug-27 14:55 200 5 gusting 6 30.0
2015-Aug-27 14:45 359 0 gusting 0 29.4
2015-Aug-27 14:35 193 2 gusting 4 30.0
2015-Aug-27 14:25 198 3 gusting 11 30.6
2015-Aug-27 14:15 226 2 gusting 3 30.6
2015-Aug-27 14:05 152 30.6
2015-Aug-27 13:55 153 2 gusting 11 31.1
2015-Aug-27 13:45 249 2 gusting 2 30.6
2015-Aug-27 13:35 184 5 gusting 9 30.6
2015-Aug-27 13:25 232 30.6
2015-Aug-27 13:15 226 30.6
2015-Aug-27 13:05 298 3 gusting 3 30.6
2015-Aug-27 12:55 330 30.0
2015-Aug-27 12:45 305 30.0
2015-Aug-27 12:35 280 30.0
2015-Aug-27 12:25 191 29.4
2015-Aug-27 12:15 105 29.4
2015-Aug-27 12:05 105 28.9
2015-Aug-27 11:55 194 28.9
2015-Aug-27 11:45 326 28.3
2015-Aug-27 11:35 359 28.3
2015-Aug-27 11:25 323 27.8
2015-Aug-27 11:15 359 27.8
2015-Aug-27 11:05 290 27.8
2015-Aug-27 10:55 290 27.8
2015-Aug-27 10:45 290 27.8
2015-Aug-27 10:35 290 27.8
2015-Aug-27 10:25 290 27.2
2015-Aug-27 10:15 280 2 gusting 2 27.2
2015-Aug-27 10:05 240 27.2
2015-Aug-27 09:55 277 2 gusting 2 27.2
2015-Aug-27 09:45 186 26.7
2015-Aug-27 09:35 211 26.7
2015-Aug-27 09:25 204 26.7
2015-Aug-27 09:15 215 3 gusting 4 26.7
2015-Aug-27 09:05 181 26.7
2015-Aug-27 08:55 145 26.1
2015-Aug-27 08:45 290 26.1
2015-Aug-27 08:35 290 25.6
2015-Aug-27 08:25 248 26.1
2015-Aug-27 08:15 072 25.6
2015-Aug-27 08:05 072 25.6
2015-Aug-27 07:55 072 25.0
2015-Aug-27 07:45 072 25.0
2015-Aug-27 07:35 072 24.4
2015-Aug-27 07:25 072 23.3
2015-Aug-27 07:15 072 23.3
2015-Aug-27 07:05 072 22.8
2015-Aug-27 06:55 072 22.2
2015-Aug-27 06:45 072 21.7
2015-Aug-27 06:35 072 21.1
2015-Aug-27 06:25 072 20.6
2015-Aug-27 06:15 072 19.4
2015-Aug-27 06:05 072 20.0
2015-Aug-27 05:55 072 19.4
2015-Aug-27 05:45 072 19.4
2015-Aug-27 05:35 072 19.4
2015-Aug-27 05:25 072 18.9
2015-Aug-27 05:15 072 18.9
2015-Aug-27 05:05 082 18.9
2015-Aug-27 04:55 049 18.9
2015-Aug-27 04:45 052 0 gusting 2 18.9
2015-Aug-27 04:35 083 18.3
2015-Aug-27 04:25 083 18.9
2015-Aug-27 04:15 083 18.9
2015-Aug-27 04:05 083 18.9
2015-Aug-27 03:55 072 18.9
2015-Aug-27 03:45 072 18.9
2015-Aug-27 03:35 055 19.4
2015-Aug-27 03:25 055 19.4
2015-Aug-27 03:15 055 19.4
2015-Aug-27 03:05 055 19.4
2015-Aug-27 02:55 055 19.4
2015-Aug-27 02:45 055 19.4
2015-Aug-27 02:35 055 18.9
2015-Aug-27 02:25 055 18.9
2015-Aug-27 02:15 055 18.3
2015-Aug-27 02:05 055 18.3
2015-Aug-27 01:55 076 18.3
2015-Aug-27 01:45 051 2 gusting 3 18.9
2015-Aug-27 01:35 077 18.9
2015-Aug-27 01:25 080 18.9
2015-Aug-27 01:15 073 18.9
2015-Aug-27 01:05 056 18.9
2015-Aug-27 00:55 053 18.9
2015-Aug-27 00:45 053 18.9
2015-Aug-27 00:35 053 18.9
2015-Aug-27 00:25 058 18.9
2015-Aug-27 00:15 058 18.9
2015-Aug-27 00:05 058 18.9
2015-Aug-26 23:55 056 19.4
2015-Aug-26 23:45 069 19.4
2015-Aug-26 23:35 069 19.4
2015-Aug-26 23:25 069 20.0
2015-Aug-26 23:15 083 20.0
2015-Aug-26 23:05 083 19.4
2015-Aug-26 22:55 076 3 gusting 3 20.0
2015-Aug-26 22:45 090 20.0
2015-Aug-26 22:35 090 20.0
2015-Aug-26 22:25 090 20.0
2015-Aug-26 22:15 090 20.6
2015-Aug-26 22:05 090 20.6
2015-Aug-26 21:55 090 20.6
2015-Aug-26 21:45 090 20.6
2015-Aug-26 21:35 090 20.0
2015-Aug-26 21:25 090 20.0
2015-Aug-26 21:15 098 20.6
2015-Aug-26 21:05 065 20.6
2015-Aug-26 20:55 065 21.1
2015-Aug-26 20:45 065 20.6
2015-Aug-26 20:35 065 21.1
2015-Aug-26 20:25 065 21.7
2015-Aug-26 20:15 065 21.7
2015-Aug-26 20:05 065 22.2
2015-Aug-26 19:55 065 21.7
2015-Aug-26 19:45 065 21.7
2015-Aug-26 19:35 039 22.2
2015-Aug-26 19:25 039 22.8
2015-Aug-26 19:15 039 22.8
2015-Aug-26 19:05 059 23.3
2015-Aug-26 18:55 173 23.9
2015-Aug-26 18:44 173 24.4
2015-Aug-26 18:34 173 24.4
2015-Aug-26 18:25 197 25.0
2015-Aug-26 18:14 197 25.0
2015-Aug-26 18:04 197 25.6
2015-Aug-26 17:54 197 26.1
2015-Aug-26 17:44 197 26.7
2015-Aug-26 17:34 197 26.7
2015-Aug-26 17:24 187 27.8
2015-Aug-26 17:14 187 27.8
2015-Aug-26 17:04 187 27.8
2015-Aug-26 16:54 166 28.3
2015-Aug-26 16:44 239 28.9
2015-Aug-26 16:34 190 28.9
2015-Aug-26 16:24 191 1 gusting 3 28.3
2015-Aug-26 16:14 183 1 gusting 2 28.3
2015-Aug-26 16:04 165 28.9
2015-Aug-26 15:54 359 29.4
2015-Aug-26 15:44 359 29.4
2015-Aug-26 15:34 219 29.4
2015-Aug-26 15:24 235 29.4
2015-Aug-26 15:14 231 28.9
2015-Aug-26 15:04 231 29.4
2015-Aug-26 14:54 202 30.0
2015-Aug-26 14:44 202 29.4
2015-Aug-26 14:34 359 1 gusting 1 29.4
2015-Aug-26 14:24 193 3 gusting 5 29.4
2015-Aug-26 14:14 201 30.0
2015-Aug-26 14:04 260 29.4
2015-Aug-26 13:54 208 29.4
2015-Aug-26 13:44 011 2 gusting 3 30.0
2015-Aug-26 13:34 359 29.4
2015-Aug-26 13:24 186 2 gusting 2 29.4
2015-Aug-26 13:14 186 28.9
2015-Aug-26 13:04 359 28.9
2015-Aug-26 12:54 359 28.9
2015-Aug-26 12:44 238 28.9
2015-Aug-26 12:34 208 28.3
2015-Aug-26 12:24 359 0 gusting 1 28.3
2015-Aug-26 12:14 359 27.8
2015-Aug-26 12:04 359 27.8
2015-Aug-26 11:54 285 27.2
2015-Aug-26 11:44 238 3 gusting 5 27.2
2015-Aug-26 11:34 158 26.7
2015-Aug-26 11:24 181 2 gusting 2 27.2
2015-Aug-26 11:14 152 26.7
2015-Aug-26 11:04 111 26.7
2015-Aug-26 10:54 328 26.7
2015-Aug-26 10:44 198 1 gusting 1 26.1
2015-Aug-26 10:34 246 1 gusting 3 26.1
2015-Aug-26 10:24 186 3 gusting 4 26.1
2015-Aug-26 10:14 215 25.6
2015-Aug-26 10:04 162 25.6
2015-Aug-26 09:54 222 25.6
2015-Aug-26 09:44 207 25.0
2015-Aug-26 09:34 283 4 gusting 4 25.0
2015-Aug-26 09:24 176 25.0
2015-Aug-26 09:14 236 25.0
2015-Aug-26 09:04 359 24.4
2015-Aug-26 08:54 287 24.4
2015-Aug-26 08:44 214 2 gusting 3 24.4
2015-Aug-26 08:34 278 2 gusting 2 25.0
2015-Aug-26 08:24 184 24.4
2015-Aug-26 08:14 184 23.9
2015-Aug-26 08:04 083 23.9
2015-Aug-26 07:54 083 23.9
2015-Aug-26 07:44 083 23.9
2015-Aug-26 07:34 083 23.3
2015-Aug-26 07:24 083 22.8
2015-Aug-26 07:14 083 22.2
2015-Aug-26 07:04 083 21.7
2015-Aug-26 06:54 083 20.6
2015-Aug-26 06:44 083 20.6
2015-Aug-26 06:34 083 20.0
2015-Aug-26 06:24 035 18.9
2015-Aug-26 06:14 035 18.9
2015-Aug-26 06:04 035 17.8
2015-Aug-26 05:54 035 17.2
2015-Aug-26 05:44 035 16.7
2015-Aug-26 05:34 035 16.7
2015-Aug-26 05:24 035 16.7
2015-Aug-26 05:14 035 16.7
2015-Aug-26 05:04 035 16.7
2015-Aug-26 04:54 035 16.7
2015-Aug-26 04:44 035 16.7
2015-Aug-26 04:34 035 16.7
2015-Aug-26 04:24 035 16.7
2015-Aug-26 04:14 035 17.2
2015-Aug-26 04:04 035 17.8
2015-Aug-26 03:54 035 17.2
2015-Aug-26 03:44 084 2 gusting 2 17.8
2015-Aug-26 03:34 049 17.8
2015-Aug-26 03:24 049 17.8
2015-Aug-26 03:14 049 17.8
2015-Aug-26 03:04 049 17.8
2015-Aug-26 02:54 049 17.8
2015-Aug-26 02:44 049 17.8
2015-Aug-26 02:34 055 17.8
2015-Aug-26 02:24 055 17.8
2015-Aug-26 02:14 055 17.8
2015-Aug-26 02:04 055 17.2
2015-Aug-26 01:54 055 17.8
2015-Aug-26 01:44 065 17.8
2015-Aug-26 01:34 065 18.3
2015-Aug-26 01:24 065 17.8
2015-Aug-26 01:14 065 17.8
2015-Aug-26 01:04 065 18.3
2015-Aug-26 00:54 065 18.3
2015-Aug-26 00:44 065 18.3
2015-Aug-26 00:34 065 18.3
2015-Aug-26 00:24 065 18.9
2015-Aug-26 00:14 065 18.3
2015-Aug-26 00:04 065 16.1
2015-Aug-25 23:54 065 18.3
2015-Aug-25 23:44 065 18.9
2015-Aug-25 23:34 065 18.9
2015-Aug-25 23:24 065 18.9
2015-Aug-25 23:14 065 18.9
2015-Aug-25 23:04 065 19.4
2015-Aug-25 22:54 065 19.4
2015-Aug-25 22:44 065 19.4
2015-Aug-25 22:34 065 19.4
2015-Aug-25 22:24 065 20.0
2015-Aug-25 22:14 062 20.0
2015-Aug-25 22:04 062 20.0
2015-Aug-25 21:54 069 20.0
2015-Aug-25 21:44 069 20.0
2015-Aug-25 21:34 069 20.0
2015-Aug-25 21:24 069 20.6
2015-Aug-25 21:14 069 20.6
2015-Aug-25 21:04 098 20.6
2015-Aug-25 20:54 098 20.6
2015-Aug-25 20:44 098 21.1
2015-Aug-25 20:34 098 21.1
2015-Aug-25 20:24 098 20.6
2015-Aug-25 20:14 098 21.1
2015-Aug-25 20:04 098 20.6